Vorticity
5 1 -1 6 24 1 -13 -5 -2 1 14 15 9 13 7 26 -20 -7 -0 11 6 6 8 14 11 8 8 9 11 16 10 9 11 12 5 8 4 5 10 7 7 8 6 4
8 4 8 12 2 9 16 33 13 14 3 19 -13 17 5 -7 -3 12 20 6 10 8 4 12 7 8 10 13 13 13 18 11 8 7 9 10 9 11 10 9 7 4 3 4
14 3 14 -12 -6 6 -2 3 2 6 4 13 6 20 6 16 11 10 7 10 9 8 7 8 9 7 8 8 8 11 14 6 8 10 9 11 11 9 6 4 3 3 4 6
5 0 8 10 -2 2 -2 -4 15 2 -1 7 15 4 9 3 2 10 9 9 9 8 9 11 12 9 10 9 10 11 10 6 8 6 9 8 6 5 4 3 3 5 5 6
7 1 -1 9 3 8 19 20 16 6 8 6 6 6 10 0 5 8 7 9 11 14 15 13 15 13 12 9 8 7 7 7 8 9 7 5 5 4 3 2 4 6 7 8
14 9 -3 3 9 -1 10 0 18 13 16 9 17 8 4 9 3 6 9 9 7 16 14 13 12 12 10 9 10 8 5 12 9 6 5 5 3 1 1 4 6 6 7 5
1 -0 26 7 2 9 10 8 16 8 15 12 3 5 4 5 1 5 7 9 8 12 17 13 12 12 11 9 5 10 11 7 5 5 3 1 1 2 3 6 8 7 7 8
6 8 3 -1 17 6 10 37 -8 -5 1 3 7 8 8 5 3 4 6 9 9 10 13 13 11 10 9 8 13 8 5 4 4 2 1 2 3 4 7 8 6 6 7 9
9 19 0 13 9 3 -3 -6 19 9 6 35 -1 2 2 8 7 7 8 9 9 8 8 11 12 10 13 8 5 3 3 3 2 2 2 2 6 7 8 7 7 8 9 6
27 16 -3 17 46 14 -5 -2 3 9 -2 -13 12 10 3 2 7 6 7 7 8 8 7 8 9 7 4 3 3 2 2 2 2 3 4 7 8 7 9 8 9 9 4 0
4 6 30 7 -2 -6 8 10 -6 4 2 6 10 13 16 14 6 5 4 6 7 8 8 6 4 4 3 2 2 2 3 3 4 5 9 10 10 11 9 11 7 1 -9 1
4 -7 -14 13 -27 64 -4 27 6 2 4 -1 -2 0 9 13 11 8 6 6 7 7 6 6 6 4 4 3 4 4 2 12 8 3 7 5 10 10 9 9 10 7 5 5
26 19 18 -10 15 8 3 6 -1 -11 24 1 8 6 4 11 15 11 9 9 9 8 6 6 6 4 5 7 3 4 14 0 5 11 11 4 -3 -12 6 9 12 6 5 5
9 27 17 8 11 12 14 -2 7 4 8 11 11 10 3 7 6 6 4 4 5 7 6 7 8 8 8 9 11 12 2 -0 7 17 -5 -3 2 9 17 20 8 0 10 11
8 2 15 22 12 16 19 16 18 19 14 7 7 2 -10 34 15 14 12 11 8 9 9 7 8 9 5 10 8 6 13 -2 19 5 -3 2 14 20 10 -7 4 9 2 5
5 5 5 4 14 16 22 16 9 10 16 19 27 17 15 8 -3 2 12 19 15 6 14 9 -2 3 15 13 2 -1 12 9 2 -7 18 -4 25 10 -3 0 10 8 7 11
14 6 5 11 13 5 4 9 24 7 10 15 33 21 20 -0 14 1 15 21 15 -2 -3 3 10 -4 0 3 13 6 2 8 14 23 -21 16 10 4 2 7 11 13 4 4
10 11 15 13 10 12 14 6 2 3 5 3 0 3 8 4 5 -1 9 4 24 -1 8 24 -3 4 15 14 11 14 21 19 11 -1 8 5 3 7 11 10 6 1 4 8
22 22 16 14 10 7 8 9 8 8 10 9 7 8 7 8 13 12 6 6 -2 -2 3 6 20 29 13 14 18 18 14 8 7 13 4 4 7 9 6 4 6 8 6 10
9 6 5 10 6 5 2 8 6 5 8 11 9 10 4 12 2 7 3 2 18 24 32 17 7 11 -2 1 7 11 5 8 7 5 5 7 8 8 7 6 3 8 14 16
7 4 1 1 5 7 7 6 8 14 8 7 9 7 13 8 1 23 31 25 17 10 9 11 1 3 10 10 4 7 9 5 4 6 7 7 7 5 3 7 14 15 11 10
25 27 26 21 13 15 15 16 16 11 8 -2 3 6 14 23 15 12 7 -1 -2 -0 5 4 0 4 4 8 12 6 4 6 7 7 5 4 4 8 12 13 10 10 10 12
3 10 11 3 6 7 4 -1 6 17 24 28 30 30 24 24 -10 -1 7 3 4 3 4 4 7 15 14 4 4 7 6 6 5 4 6 9 12 12 12 13 15 16 18 18
10 13 6 6 13 15 13 13 14 13 9 9 7 4 -1 3 4 4 3 6 9 10 11 10 6 2 3 5 5 6 4 3 8 11 12 14 15 17 19 19 18 16 14 11
14 20 24 15 7 8 8 9 12 8 3 3 6 10 10 10 10 12 13 11 9 7 6 8 6 6 4 4 7 10 11 12 12 16 20 19 19 17 15 13 11 12 16 17
19 15 12 14 14 15 17 17 15 14 13 10 8 7 7 6 5 5 5 4 4 6 7 5 5 9 11 12 14 16 20 23 22 18 16 14 13 14 17 19 16 11 12 19
2 2 3 3 3 2 2 3 4 3 2 4 4 4 3 4 6 7 7 8 9 11 12 13 16 19 21 22 21 20 18 16 14 14 14 15 15 13 13 14 15 19 26 31
Height
5678 5686 5692 5694 5695 5698 5699 5702 5702 5704 5706 5710 5714 5708 5711 5708 5710 5710 5709 5711 5710 5709 5708 5710 5710 5709 5710 5709 5709 5706 5703 5706 5706 5703 5703 5702 5699 5697 5695 5693 5691 5688 5684 5680
5668 5676 5682 5684 5688 5692 5694 5696 5698 5699 5700 5705 5707 5702 5704 5704 5704 5703 5704 5702 5704 5703 5699 5702 5702 5702 5702 5702 5700 5698 5698 5696 5696 5696 5696 5695 5694 5691 5688 5685 5681 5678 5674 5669
5658 5667 5673 5672 5679 5684 5686 5689 5692 5693 5696 5699 5699 5698 5700 5698 5696 5697 5698 5698 5697 5695 5692 5692 5693 5693 5693 5693 5691 5691 5691 5691 5691 5689 5687 5685 5682 5680 5678 5675 5672 5667 5663 5657
5650 5657 5655 5665 5671 5676 5677 5679 5682 5684 5688 5690 5690 5691 5691 5689 5690 5690 5690 5689 5688 5686 5685 5683 5684 5684 5684 5684 5683 5682 5682 5681 5679 5677 5676 5675 5672 5670 5667 5664 5660 5655 5650 5644
5640 5644 5651 5656 5665 5667 5671 5672 5676 5677 5679 5680 5683 5682 5681 5683 5684 5682 5683 5681 5680 5678 5676 5675 5675 5676 5675 5676 5675 5674 5673 5672 5670 5669 5668 5666 5663 5660 5657 5653 5648 5644 5638 5632
5635 5638 5639 5649 5659 5662 5663 5659 5669 5669 5670 5672 5674 5671 5677 5674 5677 5676 5674 5673 5672 5670 5668 5667 5667 5667 5667 5667 5667 5666 5665 5663 5662 5660 5658 5656 5653 5649 5645 5640 5635 5629 5622 5616
5628 5629 5635 5641 5652 5654 5652 5663 5660 5661 5663 5664 5663 5666 5667 5668 5668 5668 5666 5665 5663 5662 5660 5660 5659 5659 5658 5658 5657 5657 5655 5654 5652 5650 5648 5645 5641 5637 5632 5626 5620 5614 5608 5602
5620 5624 5627 5636 5641 5644 5652 5655 5654 5652 5654 5654 5655 5657 5659 5659 5660 5659 5658 5657 5655 5654 5653 5652 5650 5650 5650 5650 5649 5647 5645 5644 5642 5640 5637 5633 5629 5624 5618 5612 5606 5600 5593 5586
5612 5617 5620 5628 5631 5637 5642 5643 5645 5644 5646 5646 5644 5648 5650 5651 5651 5650 5649 5647 5647 5646 5645 5644 5642 5641 5641 5641 5639 5638 5636 5634 5631 5628 5624 5619 5615 5609 5604 5598 5591 5585 5579 5572
5600 5609 5614 5619 5623 5626 5629 5631 5636 5635 5634 5632 5632 5637 5641 5641 5640 5639 5639 5638 5637 5637 5636 5635 5633 5632 5631 5629 5627 5626 5624 5621 5617 5613 5608 5604 5599 5593 5587 5582 5576 5570 5563 5556
5596 5604 5605 5609 5613 5612 5617 5620 5623 5626 5625 5626 5625 5629 5630 5630 5630 5630 5629 5628 5628 5627 5626 5625 5624 5623 5621 5619 5617 5615 5612 5608 5604 5599 5593 5588 5583 5578 5572 5566 5560 5554 5547 5539
5589 5594 5596 5600 5600 5600 5604 5611 5614 5615 5617 5617 5617 5619 5620 5620 5618 5618 5617 5617 5617 5616 5615 5614 5613 5611 5609 5606 5604 5601 5598 5593 5587 5582 5577 5572 5566 5561 5555 5548 5542 5535 5528 5520
5578 5582 5584 5590 5593 5595 5600 5602 5603 5606 5607 5608 5608 5608 5608 5608 5608 5606 5605 5606 5605 5604 5603 5602 5601 5598 5596 5592 5589 5586 5581 5576 5571 5566 5561 5555 5550 5545 5537 5530 5524 5516 5508 5500
5569 5571 5575 5578 5581 5585 5589 5591 5592 5594 5596 5596 5595 5596 5597 5596 5596 5594 5592 5592 5591 5591 5590 5589 5586 5583 5579 5576 5572 5568 5564 5560 5555 5548 5543 5538 5531 5524 5519 5513 5506 5500 5491 5484
5560 5565 5567 5570 5574 5575 5577 5578 5580 5581 5582 5583 5583 5584 5584 5584 5584 5582 5580 5579 5578 5578 5576 5573 5570 5567 5563 5559 5555 5551 5546 5541 5536 5530 5523 5518 5513 5506 5500 5494 5486 5478 5471 5465
5555 5559 5559 5561 5564 5565 5567 5567 5568 5569 5569 5570 5569 5570 5571 5572 5571 5570 5568 5566 5565 5563 5560 5557 5553 5550 5547 5543 5538 5533 5528 5523 5518 5512 5507 5501 5494 5488 5481 5473 5465 5457 5448 5440
5547 5549 5551 5553 5554 5555 5556 5558 5558 5560 5558 5556 5556 5556 5557 5558 5556 5555 5553 5551 5550 5548 5545 5540 5536 5533 5529 5524 5520 5514 5509 5504 5499 5494 5489 5482 5475 5469 5461 5453 5444 5435 5426 5419
5539 5541 5542 5543 5544 5545 5546 5547 5547 5547 5546 5546 5545 5545 5543 5543 5542 5540 5538 5536 5535 5532 5527 5522 5519 5515 5512 5508 5503 5498 5492 5487 5482 5476 5469 5462 5455 5448 5440 5431 5422 5413 5404 5394
5528 5530 5532 5533 5533 5533 5533 5533 5534 5534 5533 5532 5531 5531 5531 5528 5525 5523 5521 5519 5516 5513 5509 5505 5501 5497 5493 5490 5485 5480 5474 5469 5462 5456 5450 5442 5435 5427 5417 5409 5400 5390 5381 5371
5516 5517 5518 5519 5519 5519 5519 5521 5521 5520 5519 5518 5518 5517 5515 5512 5510 5507 5504 5501 5498 5494 5490 5486 5482 5479 5475 5470 5465 5460 5454 5449 5442 5436 5429 5420 5413 5405 5395 5386 5377 5367 5357 5347
5504 5505 5506 5506 5507 5508 5507 5507 5506 5505 5504 5503 5502 5500 5498 5495 5492 5490 5487 5484 5482 5478 5474 5470 5466 5462 5457 5452 5447 5440 5435 5428 5421 5413 5406 5398 5389 5380 5371 5361 5352 5342 5333 5324
5495 5495 5496 5496 5496 5496 5494 5493 5492 5491 5490 5489 5487 5485 5483 5479 5477 5474 5471 5468 5465 5461 5457 5452 5448 5443 5438 5432 5426 5421 5414 5407 5399 5391 5383 5374 5366 5356 5346 5336 5327 5318 5309 5300
5485 5485 5484 5484 5483 5482 5482 5481 5479 5478 5476 5474 5472 5470 5467 5464 5461 5458 5454 5450 5447 5443 5438 5434 5429 5424 5418 5412 5406 5399 5392 5384 5376 5367 5358 5349 5339 5329 5320 5311 5302 5292 5284 5275
5473 5472 5472 5471 5470 5469 5468 5466 5464 5463 5461 5459 5457 5454 5451 5447 5444 5440 5437 5434 5430 5425 5420 5415 5409 5403 5397 5390 5384 5376 5367 5359 5350 5341 5332 5322 5312 5303 5294 5285 5277 5268 5260 5252
5461 5460 5460 5459 5458 5456 5455 5453 5451 5449 5447 5445 5442 5439 5435 5431 5428 5424 5420 5415 5410 5406 5400 5394 5388 5381 5373 5366 5357 5350 5341 5332 5323 5313 5304 5295 5285 5276 5268 5260 5252 5244 5236 5229
5452 5450 5448 5447 5445 5443 5441 5439 5437 5434 5431 5428 5425 5421 5417 5414 5409 5405 5400 5395 5389 5383 5378 5372 5364 5357 5348 5340 5331 5323 5314 5305 5296 5288 5279 5270 5260 5251 5243 5235 5227 5220 5213 5206
5439 5437 5435 5433 5431 5428 5426 5423 5420 5418 5415 5411 5407 5403 5399 5394 5389 5384 5379 5373 5366 5360 5353 5346 5339 5332 5324 5316 5306 5297 5288 5279 5271 5263 5254 5244 5235 5227 5219 5211 5203 5196 5189 5184